This is the latest recevied weather packets stored in our database for station/object KM4KMO-14. If no packets are shown the sender has not sent any weather packets the latest 10 day(s).
| Time | Temp. | Humidity | Pressure | Rain* | Wind** | Luminosity | Snow |
|---|---|---|---|---|---|---|---|
| 1777665449 | 21.11° C | 54% | 1010.7 hPa | 0 mm | - | - | - |
| 1777664550 | 20.56° C | 54% | 1010.9 hPa | 0 mm | - | - | - |
| 1777663650 | 20.56° C | 52% | 1011 hPa | 0 mm | - | - | - |
| 1777662750 | 20° C | 52% | 1011.2 hPa | 0 mm | - | - | - |
| 1777661850 | 20° C | 54% | 1011.2 hPa | 0 mm | - | - | - |
| 1777660950 | 20° C | 54% | 1011.1 hPa | 0 mm | - | - | - |
| 1777660050 | 20° C | 55% | 1011.1 hPa | 0 mm | - | - | - |
| 1777659150 | 20° C | 54% | 1011.3 hPa | 0 mm | - | - | - |
| 1777658250 | 20° C | 54% | 1011.5 hPa | 0 mm | - | - | - |
| 1777657350 | 20° C | 53% | 1011.4 hPa | 0 mm | - | - | - |
| 1777656450 | 20° C | 52% | 1011.5 hPa | 0 mm | - | - | - |
| 1777655550 | 20° C | 53% | 1011.5 hPa | 0 mm | - | - | - |
| 1777654650 | 20° C | 50% | 1011.7 hPa | 0 mm | - | - | - |
| 1777653750 | 20° C | 51% | 1011.7 hPa | 0 mm | - | - | - |
| 1777652850 | 20° C | 50% | 1011.7 hPa | 0 mm | - | - | - |
| 1777651950 | 19.44° C | 49% | 1012.2 hPa | 0 mm | - | - | - |
| 1777651050 | 18.89° C | 55% | 1012.6 hPa | 0 mm | - | - | - |
| 1777650150 | 18.89° C | 59% | 1012.5 hPa | 0 mm | - | - | - |
| 1777649250 | 17.78° C | 62% | 1012.3 hPa | 0 mm | - | - | - |
| 1777648350 | 17.22° C | 61% | 1012.4 hPa | 0 mm | - | - | - |
| 1777647450 | 16.67° C | 63% | 1012.5 hPa | 0 mm | - | - | - |
| 1777646550 | 16.11° C | 67% | 1012.6 hPa | 0 mm | - | - | - |
| 1777645651 | 15.56° C | 65% | 1012.7 hPa | 0 mm | - | - | - |
| 1777644750 | 15° C | 67% | 1012.4 hPa | 0 mm | - | - | - |
| 1777643850 | 14.44° C | 71% | 1012.1 hPa | 0 mm | - | - | - |
* Rain latest hour (hover to see other rain measurements)
** Current wind speed in m/s (hover to see current wind gust speed)